Regional Weather Roundup
Issued by NWS

Home | Current Version | Previous Version | Text Only | Print | Product List | Glossary On
Versions: 1 2 3 4 5 6 7 8 9 10 11 12 13 14 15 16 17 18 19 20 21 22 23 24 25 26 27 28 29 30 31 32 33 34 35 36 37 38 39 40 41 42 43 44 45 46 47 48 49 50
000
ASUS46 KLOX 020413
RWRCA

SOUTHERN CALIFORNIA WEATHER ROUNDUP
NATIONAL WEATHER SERVICE OXNARD CALIFORNIA
900 PM PDT TUE SEP 01 2015

NOTE: "FAIR" INDICATES FEW OR NO CLOUDS BELOW 12,000 FEET WITH NO
SIGNIFICANT WEATHER AND/OR OBSTRUCTIONS TO VISIBILITY.

  -  STATIONS PRECEEDED BY AN ASTERISK (*) ARE NOT NWS OR FAA
     STATIONS AND ARE NOT SUBJECT TO NWS AND FAA QUALITY CONTROL.

CAZ041-042-087-020500-
LA AND ORANGE COUNTY COASTAL AREAS


CITY           SKY/WX    TMP DP  RH WIND       PRES   REMARKS
L.A. DOWNTOWN  PTCLDY    70  61  73 CALM      29.93R
L.A. AIRPORT   MOCLDY    69  62  78 SW8       29.94R
LONG BEACH     MOCLDY    71  62  73 SW5       29.94R

CITY           SKY/WX    TMP DP  RH WIND       PRES   REMARKS
AVALON           N/A     66 N/A N/A MISG        N/A
FULLERTON      PTCLDY    71  63  75 VRB5      29.93R
*GETTY CENTER    N/A     64  61  88 SW5         N/A
HAWTHORNE      MOCLDY    71  62  73 SW9       29.94R
*LOS ALAMITOS  CLOUDY    69  63  81 SW6       29.94R
*REDONDO BEACH   N/A     69  62  78 CALM      29.95R
SANTA ANA      MOCLDY    69  61  75 SW8       29.94R
STA MONICA APT CLOUDY    70  63  78 SW6       29.94R
*UCLA            N/A     68  61  77 W2        29.92R

$$

CAZ547-548-048-020500-
LA COUNTY VALLEYS AND INLAND EMPIRE


CITY           SKY/WX    TMP DP  RH WIND       PRES   REMARKS
BURBANK        MOCLDY    70  61  73 S8        29.94R
VAN NUYS       MOCLDY    69  61  75 SE6       29.94R

CITY           SKY/WX    TMP DP  RH WIND       PRES   REMARKS
CORONA AIRPORT MOCLDY    69  60  73 W9        29.93R
*CHATSWORTH      N/A     71  60  70 CALM      29.94R
CHINO          MOCLDY    71  61  70 W9        29.95R
*CLAREMONT       N/A     66  60  80 SW6         N/A
MARCH AFB      CLOUDY    72  59  64 S3        29.96R
*NORTHRIDGE      N/A     70  59  68 E3          N/A
ONTARIO        MOCLDY    70  60  70 W12       29.94R
*PASADENA        N/A     70  63  78 CALM        N/A
POMONA         MOCLDY    68  59  73 SW12      29.98R
RIVERSIDE      MOCLDY    72  60  66 W6        29.94R
SAN BERNARDINO NOT AVBL
*SAN GABRIEL     N/A     71  63  75 SW3       30.00R
*WHITEMAN AP   NOT AVBL
*WOODLAND HILL   N/A     68  61  77 S2          N/A

$$

CAZ054-055-020500-
LA AND SAN BERNARDINO COUNTY MOUNTAINS


CITY           SKY/WX    TMP DP  RH WIND       PRES   REMARKS
*ACTON           N/A     72  49  44 S8          N/A
*BIG BEAR AIRP MOCLDY    59  34  38 CALM      30.22R
*BIG PINES       N/A     60  26  27 S3          N/A
*CHILAO          N/A     65  29  26 SE17        N/A
SANDBERG       CLOUDY    65  50  58 S10       30.07S
*WARM SPRINGS    N/A     62  55  79 SW7         N/A

$$

CAZ028-029-059-060-099-020500-
ANTELOPE VALLEY AND SURROUNDING AREAS


CITY           SKY/WX    TMP DP  RH WIND       PRES   REMARKS
LANCASTER      MOCLDY    77  35  21 NW14      29.95R
PALMDALE       MOCLDY    77  37  23 W17       29.94R
*POPPY PARK      N/A     74  26  17 W7G26       N/A

CITY           SKY/WX    TMP DP  RH WIND       PRES   REMARKS
29 PALMS       MOCLDY    87  59  38 S9        29.95R
BARSTOW/DAGGET PTCLDY   N/A N/A N/A W12       29.87R
BISHOP         CLOUDY    81  18   9 SE18G30   29.94R
CHINA LAKE     MOCLDY    84  27  12 S13       29.87R
EDWARDS AFB    MOCLDY    79  33  18 W16       29.89R
MOJAVE         CLEAR     79  36  21 SW13      29.94R
NEEDLES        PTCLDY    98  51  20 SW8       29.80R HX  95
VICTORVILLE    PTCLDY    79  46  31 CALM      29.96R

$$

CAZ039-040-020500-
VENTURA AND SANTA BARBARA COUNTY COAST


CITY           SKY/WX    TMP DP  RH WIND       PRES   REMARKS
CAMARILLO      CLOUDY    71  61  70 W9        29.93R
NWS OXNARD       N/A     69  62  78 CALM      29.93R
OXNARD AIRPORT CLOUDY    69  62  78 W9        29.93R
*POINT MUGU    CLOUDY    71  62  73 W6        29.94R
SBA APT/GOLETA CLOUDY    70  61  73 W5        29.93R
*SANTA BARBARA   N/A     70  60  70 E3        30.01R
*VENTURA         N/A     69  61  77 CALM      29.53S

$$

CAZ044-045-020500-
VENTURA COUNTY VALLEYS


CITY           SKY/WX    TMP DP  RH WIND       PRES   REMARKS
*SIMI VALLEY     N/A     67  62  83 W3        29.90R
*OJAI            N/A     68  61  78 CALM      29.87S
*FILLMORE        N/A     70  62  74 SW2       29.84R

$$

CAZ053-020500-
VENTURA COUNTY MOUNTAINS


CITY           SKY/WX    TMP DP  RH WIND       PRES   REMARKS
*LOCKWOOD VLY    N/A     64  28  25 MISG        N/A
*ROSE VALLEY     N/A     66  57  72 MISG        N/A

$$

CAZ034-035-036-020500-
CENTRAL COAST AND SANTA YNEZ VALLEY


CITY           SKY/WX    TMP DP  RH WIND       PRES   REMARKS
SAN LUIS OBISP PTCLDY    63  55  75 NW8       29.95R
SANTA MARIA    PTCLDY    62  58  86 NW3       29.96R

CITY           SKY/WX    TMP DP  RH WIND       PRES   REMARKS
*CAL POLY SLO    N/A     61  57  88 S2G8        N/A
*LOMPOC        PTCLDY    63  54  72 W6        29.96R
*PISMO BEACH     N/A     62  58  90 CALM      29.95R
*SANTA YNEZ    FAIR      63  54  72 NW3       29.96R

$$

CAZ037-038-051-020500-
SAN LUIS OBISPO COUNTY INTERIOR AND CUYAMA VALLEY


CITY           SKY/WX    TMP DP  RH WIND       PRES   REMARKS
*CUYAMA          N/A     69  54  60 W12       29.84R
PASO ROBLES    CLEAR     66  55  67 S13       29.91R

$$

CAZ032-033-061-020500-
SOUTHERN DESERTS


CITY           SKY/WX    TMP DP  RH WIND       PRES   REMARKS
BLYTHE         CLEAR     95  56  26 S12       29.78R HX  93
IMPERIAL       CLEAR     95  45  17 S9        29.75R HX  91
PALM SPRINGS   PTCLDY    92  50  23 NW16      29.81R
THERMAL        MOCLDY    91  63  39 N8        29.73R HX  92

$$

ELSEWHERE ACROSS THE WESTERN UNITED STATES AND MEXICO


CITY           SKY/WX    TMP DP  RH WIND       PRES   REMARKS
DEATH VALLEY,    N/A    104  24   6 E3          N/A  HX  96
DENVER, CO     MOCLDY    67  46  47 S12       30.11R
GRAND CANYON,  MOCLDY    60  53  77 CALM      30.27R
HONOLULU, HI   MOSUNNY   88  73  62 N13G21    29.78R HX  96
KAHULUI, MAUI  PTCLDY    88  73  62 S13       29.77S HX  96
LAKE TAHOE, CA CLEAR     63  38  39 S6        30.13R
LAS VEGAS, NV  PTCLDY    93  49  22 S10       29.83R HX  90
MAMMOTH LAKES, FAIR      64  28  25 SW9       30.18R
MEXICO CITY, M MOCLDY    64  55  72 E7        30.36
PHOENIX, AZ    MOCLDY    95  59  30 NE7       29.85R HX  94
PORTLAND, OR   LGT RAIN  67  57  70 N10       29.84R
RENO, NV       PTCLDY    75  36  24 W21G29    29.96R
SALT LAKE CITY PTCLDY    81  36  19 S10       29.91R
SAN DIEGO, CA  CLOUDY    70  61  73 SW6       29.96R
SAN FRANCISCO, PTCLDY    63  55  75 SW14G23   29.92R
SAN JOSE, CA   PTCLDY    64  57  78 NW14      29.92R
SEATTLE, WA    CLOUDY    59  56  89 S15       29.81R
TIJUANA, MEX   MOCLDY    66  57  72 W6        29.97R

$$

STATION/POSITION TIME  TEMP    WIND        PRES    VSBY  WAVE
                       AIR SEA DIR/SP/G                  HT/PER
                 (UTC) (F)     (DEG/KT/KT) (MB)    (MI)  (FT/S)
POINT ARGUELLO B NOT AVBL
WEST SANTA BARBA 0350   65 69  330/ 16/ 17 1012.4R         7/11
POINT CONCEPTION NOT AVBL
EAST SANTA BARBA 0400   67 67  300/ 10/ 12 1013.4S
SANTA MONICA BAY 0350   68 71  260/  8/ 10 1013.6R         4/13


USA.gov is the U.S. government's official web portal to all federal, state and local government web resources and services.